GW2440 Weather Reports


Display with metric or nautical units.
time (UTC)temp
F
wind
direction
speed
MPH
gust
MPH
rain 1hr
in
rain 24hr
in
rain mn
in
humidity
%
barometer
mb
20260906143257 86 227 5.0 6.0 0.00 0.00 0.00 83 1015.2
20260906142756 86 237 4.0 5.0 0.00 0.00 0.00 84 1015.5
20260906142252 86 253 6.0 7.0 0.00 0.00 0.00 84 1015.2
20260906141750 86 250 2.0 2.0 0.00 0.00 0.00 84 1015.2
20260906141245 86 259 3.0 3.0 0.00 0.00 0.00 86 1015.2
20260906140744 86 213 3.0 3.0 0.00 0.00 0.00 86 1015.2
20260906140239 86 216 3.0 3.0 0.00 0.00 0.00 86 1015.2
20260906135736 85 257 4.0 5.0 0.00 0.00 0.00 88 1015.2
20260906135232 84 236 3.0 3.0 0.00 0.00 0.00 89 1014.8
20260906134728 84 279 2.0 3.0 0.00 0.00 0.00 88 1015.2
20260906134223 84 214 3.0 3.0 0.00 0.00 0.00 90 1015.2
20260906133718 85 255 4.0 6.0 0.00 0.00 0.00 89 1015.2
20260906133214 85 218 3.0 3.0 0.00 0.00 0.00 89 1015.2
20260906132709 84 344 0.0 0.0 0.00 0.00 0.00 90 1015.2
20260906132204 84 261 3.0 3.0 0.00 0.00 0.00 90 1015.2
20260906131700 83 318 3.0 3.0 0.00 0.00 0.00 91 1015.5
20260906131155 83 274 1.0 2.0 0.00 0.00 0.00 91 1015.5
20260906130650 83 225 3.0 3.0 0.00 0.00 0.00 92 1015.2
20260906130145 83 231 3.0 3.0 0.00 0.00 0.00 92 1015.2
20260906125643 82 252 1.0 1.0 0.00 0.00 0.00 92 1015.5
20260906125142 82 252 2.0 2.0 0.00 0.00 0.00 93 1015.2
20260906124637 83 252 0.0 0.0 0.00 0.00 0.00 92 1015.5
20260906124133 82 167 0.0 0.0 0.00 0.00 0.00 93 1015.5
20260906123632 81 170 1.0 1.0 0.00 0.00 0.00 95 1015.2
20260906123127 81 219 1.0 2.0 0.00 0.00 0.00 95 1015.5
20260906122626 80 218 0.0 0.0 0.00 0.00 0.00 95 1015.2
20260906122122 80 191 1.0 1.0 0.00 0.00 0.00 96 1015.2
20260906121618 80 229 2.0 2.0 0.00 0.00 0.00 96 1015.2
20260906121114 79 189 2.0 2.0 0.00 0.00 0.00 97 1014.8
20260906120609 79 220 0.0 0.0 0.00 0.00 0.00 97 1014.8
20260906120107 78 213 0.0 0.0 0.00 0.00 0.00 98 1015.2
20260906115601 78 213 0.0 0.0 0.00 0.00 0.00 99 1014.8
20260906115056 77 209 0.0 0.0 0.00 0.00 0.00 99 1014.8
20260906114550 77 209 0.0 0.0 0.00 0.00 0.00 99 1014.8
20260906114045 77 209 0.0 0.0 0.00 0.00 0.00 99 1014.8
20260906113544 77 211 0.0 0.0 0.00 0.00 0.00 99 1015.2
20260906113040 76 204 0.0 0.0 0.00 0.00 0.00 99 1014.8
20260906112534 76 204 0.0 0.0 0.00 0.00 0.00 99 1014.8
20260906112031 76 204 0.0 0.0 0.00 0.00 0.00 99 1014.8
20260906111530 76 204 0.0 0.0 0.00 0.00 0.00 99 1014.5
20260906111026 76 204 0.0 0.0 0.00 0.00 0.00 99 1014.8
20260906110525 76 204 0.0 0.0 0.00 0.00 0.00 99 1014.5
20260906110025 76 204 0.0 0.0 0.00 0.00 0.00 99 1014.5
20260906105520 76 204 0.0 0.0 0.00 0.00 0.00 99 1014.5
20260906105016 76 204 0.0 0.0 0.00 0.00 0.00 99 1014.5
20260906104514 76 204 0.0 0.0 0.00 0.00 0.00 99 1014.2
20260906104009 76 204 0.0 0.0 0.00 0.00 0.00 99 1014.2
20260906103507 76 204 0.0 0.0 0.00 0.00 0.00 99 1014.2
20260906103002 77 204 0.0 0.0 0.00 0.00 0.00 99 1014.2
20260906102457 77 204 0.0 0.0 0.00 0.00 0.00 99 1013.8
20260906101957 77 204 0.0 0.0 0.00 0.00 0.00 99 1013.5
20260906101452 77 209 0.0 0.0 0.00 0.00 0.00 99 1013.5
20260906100947 76 229 0.0 0.0 0.00 0.00 0.00 99 1013.5
20260906100442 76 225 0.0 0.0 0.00 0.00 0.00 99 1013.8
20260906095936 76 218 0.0 0.0 0.00 0.00 0.00 99 1013.5
20260906095431 76 218 0.0 0.0 0.00 0.00 0.00 99 1013.5
20260906094926 76 218 0.0 0.0 0.00 0.00 0.00 99 1013.8
20260906094420 76 218 0.0 0.0 0.00 0.00 0.00 99 1013.5
20260906093917 76 218 0.0 0.0 0.00 0.00 0.00 99 1013.5
20260906093413 76 218 0.0 0.0 0.00 0.00 0.00 99 1013.5
20260906092912 76 218 0.0 0.0 0.00 0.00 0.00 99 1013.5
20260906092407 76 218 0.0 0.0 0.00 0.00 0.00 99 1013.5
20260906091902 76 218 0.0 0.0 0.00 0.00 0.00 99 1013.5
20260906091358 76 218 0.0 0.0 0.00 0.00 0.00 99 1013.5
20260906090855 77 218 0.0 0.0 0.00 0.00 0.00 99 1013.5
20260906090354 77 218 0.0 0.0 0.00 0.00 0.00 99 1013.5
20260906085849 77 218 0.0 0.0 0.00 0.00 0.00 99 1013.1
20260906085348 78 219 0.0 0.0 0.00 0.00 0.00 98 1013.1
20260906084843 78 207 0.0 0.0 0.00 0.00 0.00 98 1013.1
20260906084342 78 205 1.0 1.0 0.00 0.00 0.00 98 1013.1
20260906083837 78 193 0.0 0.0 0.00 0.00 0.00 98 1013.1
20260906083332 78 193 0.0 0.0 0.00 0.00 0.00 98 1013.1
20260906082826 78 230 0.0 0.0 0.00 0.00 0.00 98 1013.1
20260906082321 78 198 0.0 0.0 0.00 0.00 0.00 97 1013.1
20260906081817 78 226 0.0 0.0 0.00 0.00 0.00 97 1013.1
20260906081313 78 221 0.0 0.0 0.00 0.00 0.00 97 1013.1
20260906080809 78 221 0.0 0.0 0.00 0.00 0.00 97 1013.1
20260906080305 78 217 1.0 2.0 0.00 0.00 0.00 97 1013.1
20260906075805 78 195 1.0 1.0 0.00 0.00 0.00 97 1012.8
20260906075306 79 222 3.0 3.0 0.00 0.00 0.00 96 1012.8
20260906074800 78 235 3.0 3.0 0.00 0.00 0.00 96 1012.8
20260906074259 78 257 3.0 3.0 0.00 0.00 0.00 96 1013.1
20260906073758 79 199 2.0 2.0 0.00 0.00 0.00 96 1013.1
20260906073253 79 210 3.0 3.0 0.00 0.00 0.00 96 1013.1
20260906072749 78 239 3.0 3.0 0.00 0.00 0.00 96 1012.8
20260906072245 78 205 3.0 3.0 0.00 0.00 0.00 96 1013.5
20260906071741 78 220 3.0 5.0 0.00 0.00 0.00 96 1013.5
20260906071241 78 223 2.0 2.0 0.00 0.00 0.00 96 1013.1
20260906070737 78 216 2.0 2.0 0.00 0.00 0.00 96 1013.5
20260906070233 78 232 1.0 2.0 0.00 0.00 0.00 96 1013.5
20260906065732 79 212 1.0 1.0 0.00 0.00 0.00 96 1013.5
20260906065227 79 222 2.0 2.0 0.00 0.00 0.00 95 1013.5
20260906064723 79 225 1.0 2.0 0.00 0.00 0.00 95 1013.5
20260906064219 79 222 1.0 2.0 0.00 0.00 0.00 94 1013.8
20260906063714 79 253 4.0 5.0 0.00 0.00 0.00 94 1013.8
20260906063209 79 236 4.0 6.0 0.00 0.00 0.00 94 1013.8
20260906062705 79 197 5.0 6.0 0.00 0.00 0.00 94 1013.8
20260906062203 79 212 2.0 3.0 0.00 0.00 0.00 95 1014.2
20260906061659 79 220 1.0 1.0 0.00 0.00 0.00 95 1014.2
20260906061155 79 200 2.0 2.0 0.00 0.00 0.00 95 1014.2
20260906060651 79 222 2.0 2.0 0.00 0.00 0.00 94 1014.2
20260906060148 79 201 1.0 2.0 0.00 0.00 0.00 94 1014.5
20260906055643 79 181 1.0 1.0 0.00 0.00 0.00 94 1014.5
20260906055138 80 200 1.0 1.0 0.00 0.00 0.00 94 1014.5
20260906054634 79 219 2.0 2.0 0.00 0.00 0.00 94 1014.5
20260906054128 80 191 1.0 1.0 0.00 0.00 0.00 94 1014.2
20260906053625 80 227 2.0 2.0 0.00 0.00 0.00 94 1014.5
20260906053120 80 218 1.0 2.0 0.00 0.00 0.00 94 1014.5
20260906052615 79 196 1.0 1.0 0.00 0.00 0.00 94 1014.5
20260906052107 79 191 1.0 2.0 0.00 0.00 0.00 94 1014.8
20260906051602 79 245 1.0 2.0 0.00 0.00 0.00 94 1014.8
20260906051057 79 216 1.0 1.0 0.00 0.00 0.00 93 1014.8
20260906050557 79 203 1.0 1.0 0.00 0.00 0.00 93 1015.2
20260906050048 80 204 1.0 1.0 0.00 0.00 0.00 93 1014.8
20260906045546 80 196 1.0 1.0 0.00 0.00 0.00 93 1014.8
20260906045042 80 192 1.0 1.0 0.00 0.00 0.00 92 1015.2
20260906044537 80 209 1.0 1.0 0.00 0.00 0.00 92 1014.8
20260906044032 80 216 3.0 3.0 0.00 0.00 0.00 92 1014.8
20260906043528 80 211 2.0 2.0 0.00 0.00 0.00 92 1014.8
20260906043024 80 197 2.0 2.0 0.00 0.00 0.00 91 1014.8
20260906042522 80 213 5.0 5.0 0.00 0.00 0.00 91 1014.8
20260906042018 80 175 2.0 2.0 0.00 0.00 0.00 90 1015.2
20260906041514 80 236 3.0 3.0 0.00 0.00 0.00 90 1014.8
20260906041013 80 178 2.0 2.0 0.00 0.00 0.00 90 1014.8
20260906040509 80 210 3.0 3.0 0.00 0.00 0.00 90 1014.8
20260906040004 80 206 2.0 3.0 0.00 0.00 0.00 90 1015.2
20260906035459 80 200 1.0 2.0 0.00 0.00 0.00 89 1015.2
20260906034955 80 200 1.0 2.0 0.00 0.00 0.00 89 1015.2
20260906034454 80 195 2.0 3.0 0.00 0.00 0.00 89 1015.2
20260906033950 80 170 2.0 2.0 0.00 0.00 0.00 88 1015.2
20260906033444 80 199 3.0 3.0 0.00 0.00 0.00 88 1015.2
20260906032940 80 220 4.0 6.0 0.00 0.00 0.00 88 1014.8
20260906032436 80 167 2.0 2.0 0.00 0.00 0.00 88 1015.2
20260906031930 80 166 1.0 1.0 0.00 0.00 0.00 88 1015.2
20260906031426 80 189 2.0 3.0 0.00 0.00 0.00 89 1015.2
20260906030921 80 204 2.0 3.0 0.00 0.00 0.00 88 1015.2
20260906030416 80 193 1.0 2.0 0.00 0.00 0.00 89 1015.2
20260906025910 80 192 2.0 2.0 0.00 0.00 0.00 89 1015.2
20260906025405 80 146 2.0 2.0 0.00 0.00 0.00 89 1015.2
20260906024904 80 130 2.0 2.0 0.00 0.00 0.00 89 1015.2
20260906024403 80 189 1.0 2.0 0.00 0.00 0.00 88 1015.2
20260906023858 80 184 1.0 1.0 0.00 0.00 0.00 89 1015.2
20260906023354 80 190 1.0 1.0 0.00 0.00 0.00 88 1015.2
20260906022848 80 200 1.0 1.0 0.00 0.00 0.00 88 1015.2
20260906022344 80 159 0.0 1.0 0.00 0.00 0.00 89 1015.2
20260906021840 80 165 2.0 2.0 0.00 0.00 0.00 88 1015.2
20260906021339 80 173 3.0 3.0 0.00 0.00 0.00 89 1015.2
20260906020833 80 190 3.0 3.0 0.00 0.00 0.00 89 1015.2
20260906020327 80 182 1.0 1.0 0.00 0.00 0.00 90 1015.2
20260906015822 80 210 2.0 2.0 0.00 0.00 0.00 90 1015.2
20260906015321 80 205 1.0 1.0 0.00 0.00 0.00 90 1015.2
20260906014820 80 189 0.0 0.0 0.00 0.00 0.00 90 1015.2
20260906014316 80 187 3.0 5.0 0.00 0.00 0.00 90 1015.2
20260906013812 80 209 3.0 3.0 0.00 0.00 0.00 90 1015.2
20260906013307 80 197 4.0 5.0 0.00 0.00 0.00 90 1015.2
20260906012803 80 176 5.0 6.0 0.00 0.00 0.00 90 1014.8
20260906012257 80 163 4.0 5.0 0.00 0.00 0.00 91 1015.2
20260906011752 80 183 4.0 6.0 0.00 0.00 0.00 91 1014.8
20260906011252 80 179 3.0 5.0 0.00 0.00 0.00 92 1015.2
20260906010748 80 184 3.0 5.0 0.00 0.00 0.00 91 1015.2
20260906010244 81 212 2.0 2.0 0.00 0.00 0.00 90 1014.5
20260906005738 81 186 3.0 3.0 0.00 0.00 0.00 89 1014.8
20260906005232 81 148 1.0 2.0 0.00 0.00 0.00 88 1014.5
20260906004732 82 193 4.0 5.0 0.00 0.00 0.00 89 1014.5
20260906004227 82 191 1.0 1.0 0.00 0.00 0.00 89 1014.5
20260906003722 82 186 3.0 3.0 0.00 0.00 0.00 88 1014.8
20260906003217 82 191 2.0 3.0 0.00 0.00 0.00 87 1014.5
20260906002717 82 109 2.0 3.0 0.00 0.00 0.00 86 1014.8
20260906002212 82 193 2.0 2.0 0.00 0.00 0.00 86 1014.5
20260906001708 82 99 1.0 2.0 0.00 0.00 0.00 86 1014.5
20260906001207 82 169 1.0 2.0 0.00 0.00 0.00 86 1014.5
20260906000703 82 124 1.0 2.0 0.00 0.00 0.00 86 1014.5
20260906000158 82 128 0.0 0.0 0.00 0.00 0.00 86 1014.5
20260905235657 82 160 0.0 1.0 0.00 0.00 0.00 85 1014.5
20260905235152 82 79 3.0 5.0 0.00 0.00 0.00 85 1014.2
20260905234647 83 68 2.0 2.0 0.00 0.00 0.00 85 1014.2
20260905234143 83 35 2.0 3.0 0.00 0.00 0.00 84 1014.5
20260905233638 83 59 1.0 1.0 0.00 0.00 0.00 85 1014.5
20260905233137 84 95 5.0 7.0 0.00 0.00 0.00 84 1014.5
20260905232633 84 114 1.0 2.0 0.00 0.00 0.00 84 1014.5
20260905232128 84 48 2.0 3.0 0.00 0.00 0.00 85 1014.5
20260905231623 84 39 4.0 5.0 0.00 0.00 0.00 85 1014.5
20260905231120 85 41 3.0 3.0 0.00 0.00 0.00 85 1014.5
20260905230615 84 79 2.0 2.0 0.00 0.00 0.00 85 1014.5
20260905230112 85 30 3.0 3.0 0.00 0.00 0.00 83 1014.5
20260905225607 85 50 2.0 2.0 0.00 0.00 0.00 84 1014.5
20260905225101 85 48 1.0 2.0 0.00 0.00 0.00 84 1014.5
20260905224556 85 35 2.0 3.0 0.00 0.00 0.00 82 1014.5
20260905224055 86 109 1.0 2.0 0.00 0.00 0.00 81 1014.5
20260905223553 86 36 2.0 2.0 0.00 0.00 0.00 81 1014.5
20260905223048 86 20 4.0 5.0 0.00 0.00 0.00 79 1014.5
20260905222543 86 48 4.0 6.0 0.00 0.00 0.00 77 1014.5
20260905222038 87 46 4.0 5.0 0.00 0.00 0.00 75 1014.5
20260905221534 89 46 4.0 5.0 0.00 0.00 0.00 74 1014.2
20260905221030 89 218 1.0 1.0 0.00 0.00 0.00 72 1014.2
20260905220526 87 41 2.0 2.0 0.00 0.00 0.00 75 1014.2
20260905220022 87 41 3.0 3.0 0.00 0.00 0.00 76 1013.8
20260905215521 88 51 1.0 2.0 0.00 0.00 0.00 74 1014.2
20260905215017 87 38 3.0 3.0 0.00 0.00 0.00 75 1013.8
20260905214513 88 14 5.0 7.0 0.00 0.00 0.00 73 1014.2
20260905214008 88 339 3.0 3.0 0.00 0.00 0.00 73 1014.2
20260905213503 89 11 4.0 5.0 0.00 0.00 0.00 72 1014.2
20260905212958 88 233 3.0 3.0 0.00 0.00 0.00 72 1014.2
20260905212453 89 20 5.0 7.0 0.00 0.00 0.00 74 1014.5
20260905211952 89 323 4.0 7.0 0.00 0.00 0.00 76 1014.5
20260905211448 89 328 7.0 9.0 0.00 0.00 0.00 75 1014.5
20260905210943 88 347 3.0 3.0 0.00 0.00 0.00 78 1014.5
20260905210439 88 21 5.0 8.0 0.00 0.00 0.00 78 1014.5
20260905205938 88 211 1.0 1.0 0.00 0.00 0.00 75 1014.5
20260905205433 88 46 5.0 8.0 0.00 0.00 0.00 75 1014.5
20260905204932 87 304 5.0 7.0 0.00 0.00 0.00 76 1014.5
20260905204428 88 26 6.0 7.0 0.00 0.00 0.00 75 1014.5
20260905203927 89 340 5.0 6.0 0.00 0.00 0.00 71 1014.5
20260905203422 88 324 4.0 5.0 0.00 0.00 0.00 73 1014.5
20260905202918 89 350 5.0 9.0 0.00 0.00 0.00 72 1014.5
20260905202413 88 298 3.0 5.0 0.00 0.00 0.00 74 1014.8
20260905201908 88 36 4.0 5.0 0.00 0.00 0.00 74 1014.5
20260905201403 88 351 4.0 5.0 0.00 0.00 0.00 76 1014.5
20260905200857 88 337 4.0 5.0 0.00 0.00 0.00 74 1014.5
20260905200354 87 29 2.0 3.0 0.00 0.00 0.00 75 1014.5
20260905195851 86 278 5.0 6.0 0.00 0.00 0.00 77 1014.5
20260905195347 87 124 0.0 1.0 0.00 0.00 0.00 78 1014.5
20260905194843 88 1 1.0 2.0 0.00 0.00 0.00 76 1014.8
20260905194342 92 290 4.0 7.0 0.00 0.00 0.00 66 1014.5
20260905193842 92 239 11.0 16.0 0.00 0.00 0.00 65 1014.8
20260905193336 93 220 8.0 9.0 0.00 0.00 0.00 65 1014.5
20260905192832 92 285 6.0 7.0 0.00 0.00 0.00 66 1014.8
20260905192328 93 225 5.0 7.0 0.00 0.00 0.00 67 1014.5
20260905191827 92 238 10.0 15.0 0.00 0.00 0.00 67 1014.5
20260905191326 93 267 9.0 10.0 0.00 0.00 0.00 66 1014.5
20260905190825 95 307 5.0 6.0 0.00 0.00 0.00 61 1014.2
20260905190319 95 252 4.0 6.0 0.00 0.00 0.00 60 1014.2
20260905185817 94 269 4.0 6.0 0.00 0.00 0.00 62 1014.5
20260905185313 94 226 6.0 9.0 0.00 0.00 0.00 62 1014.2
20260905184806 93 300 7.0 10.0 0.00 0.00 0.00 60 1014.5
20260905184300 93 211 4.0 5.0 0.00 0.00 0.00 65 1014.5
20260905183759 93 216 3.0 5.0 0.00 0.00 0.00 64 1014.5
20260905183254 93 233 5.0 7.0 0.00 0.00 0.00 64 1014.5
20260905182753 93 230 5.0 6.0 0.00 0.00 0.00 64 1014.8
20260905182248 94 228 4.0 5.0 0.00 0.00 0.00 64 1014.8
20260905181743 93 209 4.0 6.0 0.00 0.00 0.00 65 1014.5
20260905181242 93 192 6.0 7.0 0.00 0.00 0.00 64 1014.5
20260905180737 93 226 3.0 6.0 0.00 0.00 0.00 64 1014.5
20260905180232 92 292 6.0 9.0 0.00 0.00 0.00 63 1014.5
20260905175727 92 225 6.0 7.0 0.00 0.00 0.00 67 1014.5
20260905175221 92 243 5.0 6.0 0.00 0.00 0.00 67 1014.5
20260905174717 91 216 2.0 2.0 0.00 0.00 0.00 68 1014.8
20260905174212 91 251 6.0 8.0 0.00 0.00 0.00 70 1015.2
20260905173709 92 252 6.0 7.0 0.00 0.00 0.00 68 1015.2
20260905173204 91 238 3.0 5.0 0.00 0.00 0.00 69 1015.2
20260905172703 91 256 4.0 6.0 0.00 0.00 0.00 70 1015.2
20260905172157 91 246 5.0 6.0 0.00 0.00 0.00 69 1015.5
20260905171653 91 271 3.0 5.0 0.00 0.00 0.00 70 1015.5
20260905171149 91 270 6.0 8.0 0.00 0.00 0.00 72 1015.5
20260905170647 91 248 5.0 6.0 0.00 0.00 0.00 72 1015.8
20260905170141 91 248 6.0 7.0 0.00 0.00 0.00 73 1015.8
20260905165641 91 248 3.0 3.0 0.00 0.00 0.00 72 1015.8
20260905165136 91 267 2.0 2.0 0.00 0.00 0.00 71 1015.8
20260905164631 91 342 4.0 5.0 0.00 0.00 0.00 72 1016.2
20260905164130 90 223 6.0 8.0 0.00 0.00 0.00 73 1016.2
20260905163627 91 236 6.0 7.0 0.00 0.00 0.00 74 1016.2
20260905163123 90 231 4.0 5.0 0.00 0.00 0.00 75 1016.2
20260905162619 90 245 3.0 3.0 0.00 0.00 0.00 75 1016.5
20260905162118 90 239 5.0 6.0 0.00 0.00 0.00 78 1016.5
20260905161618 90 298 4.0 5.0 0.00 0.00 0.00 77 1016.5
20260905161115 89 222 6.0 6.0 0.00 0.00 0.00 80 1016.5
20260905160615 89 281 4.0 5.0 0.00 0.00 0.00 79 1016.5
20260905160109 87 16 1.0 1.0 0.00 0.00 0.00 83 1016.5
20260905155604 88 68 2.0 2.0 0.00 0.00 0.00 87 1016.5
20260905155103 87 68 0.0 0.0 0.00 0.00 0.00 86 1016.5
20260905154557 86 68 1.0 1.0 0.00 0.00 0.00 88 1016.9
20260905154053 86 67 3.0 3.0 0.00 0.00 0.00 88 1016.9
20260905153549 86 68 1.0 1.0 0.00 0.00 0.00 89 1016.9
20260905153048 86 68 1.0 1.0 0.00 0.00 0.00 89 1016.9
20260905152543 86 68 2.0 2.0 0.00 0.00 0.00 90 1016.9
20260905152038 86 68 1.0 1.0 0.00 0.00 0.00 89 1017.2
20260905151533 87 216 0.0 1.0 0.00 0.00 0.00 88 1016.9
20260905151029 86 216 1.0 1.0 0.00 0.00 0.00 87 1017.2
20260905150524 85 216 0.0 1.0 0.00 0.00 0.00 89 1016.9
20260905150021 85 239 1.0 1.0 0.00 0.00 0.00 90 1017.2
20260905145515 85 133 1.0 1.0 0.00 0.00 0.00 91 1017.2
20260905145015 84 222 0.0 0.0 0.00 0.00 0.00 91 1016.9
20260905144510 84 195 0.0 0.0 0.00 0.00 0.00 92 1017.2
20260905144009 83 236 2.0 2.0 0.00 0.00 0.00 93 1016.9